Weather History for PAQT - September, 2013

Change the Weather History Date:

Wednesday, September 11, 2013

  Actual Average (PAKU) Record (PAKU)
Temperature  
Mean Temperature 46 °F -  
Max Temperature 57 °F 38 °F 60 °F (2007)
Min Temperature 34 °F 30 °F 22 °F (1992)
Degree Days  
Heating Degree Days 20    
Moisture  
Dew Point 39 °F    
Average Humidity 85    
Maximum Humidity 100    
Minimum Humidity 60    
Precipitation  
Precipitation 0.00 in - - ()
Sea Level Pressure  
Sea Level Pressure 29.64 in    
Wind  
Wind Speed 6 mph (NE)    
Max Wind Speed 13 mph    
Max Gust Speed -    
Visibility 10 miles    
Events Rain    
Averages and records for this station are not official NWS values.
T = Trace of Precipitation, MM = Missing Value Source: NWS Daily Summary

Daily Weather History Graph

Daily Weather History Graph

Search for Another Location

Airport or City:

Trip Planner

Search our weather history database for the weather conditions in past years. The results will help you decide how hot, cold, wet, or windy it might be!

Date:

Astronomy

Sep. 11, 2013 Rise Set
Actual Time 7:01 AM AKDT 8:56 PM AKDT
Civil Twilight 5:54 AM AKDT 10:02 PM AKDT
Nautical Twilight 4:16 AM AKDT 11:38 PM AKDT
Astronomical Twilight Sun does not set Sun does not set
Moon 6:40 PM AKDT (9/11) 8:01 PM AKDT (9/11)
Length of Visible Light 16h 07m
Length of Day
13h 54m
Waxing Crescent, 40% of the Moon is Illuminated
Sep 11
Waxing Crescent
Sep 12
First Quarter
Sep 19
Full
Sep 26
Last Quarter
Oct 4
New

Hourly Weather History & Observations

Time (AKDT) Temp. Windchill Dew Point Humidity Pressure Visibility Wind Dir Wind Speed Gust Speed Precip Events Conditions
12:53 AM 39.9 °F 35.1 °F 39.0 °F 97% 29.68 in 10.0 mi ENE 6.9 mph - N/A   Overcast
1:53 AM 37.9 °F 32.7 °F 37.0 °F 97% 29.68 in 10.0 mi ENE 6.9 mph - N/A   Partly Cloudy
2:53 AM 37.0 °F 31.6 °F 37.0 °F 100% 29.68 in 10.0 mi NE 6.9 mph - N/A   Clear
3:53 AM 36.0 °F 31.1 °F 36.0 °F 100% 29.68 in 10.0 mi ENE 5.8 mph - N/A   Clear
4:53 AM 35.1 °F 30.1 °F 34.0 °F 96% 29.67 in 10.0 mi ENE 5.8 mph - N/A   Clear
5:53 AM 34.0 °F 28.8 °F 34.0 °F 100% 29.67 in 10.0 mi ENE 5.8 mph - N/A   Clear
6:53 AM 34.0 °F 29.8 °F 34.0 °F 100% 29.67 in 10.0 mi East 4.6 mph - N/A   Clear
7:53 AM 35.1 °F 32.2 °F 34.0 °F 96% 29.67 in 10.0 mi ENE 3.5 mph - N/A   Clear
8:53 AM 34.0 °F 28.8 °F 34.0 °F 100% 29.66 in 10.0 mi NE 5.8 mph - N/A   Clear
9:53 AM 37.0 °F 33.3 °F 37.0 °F 100% 29.65 in 10.0 mi ENE 4.6 mph - N/A   Overcast
10:53 AM 43.0 °F 40.3 °F 39.9 °F 89% 29.65 in 10.0 mi NE 4.6 mph - N/A   Overcast
11:53 AM 48.0 °F - 41.0 °F 77% 29.65 in 10.0 mi East 5.8 mph - N/A   Scattered Clouds
12:53 PM 53.1 °F - 43.0 °F 69% 29.65 in 10.0 mi Calm Calm - N/A   Clear
1:53 PM 57.0 °F - 44.1 °F 62% 29.63 in 10.0 mi Calm Calm - N/A   Clear
2:53 PM 57.9 °F - 44.1 °F 60% 29.62 in 10.0 mi North 5.8 mph - N/A   Clear
3:53 PM 57.9 °F - 45.0 °F 62% 29.61 in 10.0 mi North 9.2 mph - N/A   Clear
4:53 PM 57.0 °F - 45.0 °F 64% 29.61 in 10.0 mi NNE 6.9 mph - N/A   Clear
5:53 PM 57.9 °F - 45.0 °F 62% 29.61 in 10.0 mi ENE 12.7 mph - N/A   Clear
6:53 PM 55.0 °F - 44.1 °F 67% 29.61 in 10.0 mi ENE 10.4 mph - N/A   Clear
7:53 PM 51.1 °F - 43.0 °F 74% 29.61 in 10.0 mi NE 6.9 mph - N/A   Clear
8:53 PM 46.9 °F - 42.1 °F 83% 29.61 in 10.0 mi NE 5.8 mph - N/A   Clear
9:53 PM 42.1 °F 37.7 °F 39.0 °F 89% 29.62 in 10.0 mi ENE 6.9 mph - N/A   Clear
10:53 PM 39.0 °F 34.0 °F 37.9 °F 96% 29.63 in 10.0 mi ENE 6.9 mph - N/A   Clear
11:53 PM 37.0 °F 32.4 °F 37.0 °F 100% 29.64 in 10.0 mi NE 5.8 mph - 0.00 in Rain Light Rain